Asheboro, NC

7:37 PM EDT on August 31, 2016 (GMT -0400)
Asheboro Municipal

Weather History for KHBI - April, 2013

Change the Weather History Date:

Saturday, April 20, 2013

  Actual Average Record
Temperature  
Mean Temperature 52 °F -  
Max Temperature 61 °F 74 °F 93 °F (1985)
Min Temperature 43 °F 48 °F 27 °F (1983)
Degree Days  
Heating Degree Days 13    
Growing Degree Days 2 (Base 50)    
Moisture  
Dew Point 34 °F    
Average Humidity 51    
Maximum Humidity 85    
Minimum Humidity 28    
Precipitation  
Precipitation 0.00 in - - ()
Sea Level Pressure  
Sea Level Pressure 30.13 in    
Wind  
Wind Speed 6 mph (NW)    
Max Wind Speed 12 mph    
Max Gust Speed 20 mph    
Visibility 10 miles    
Events      
Averages and records for this station are not official NWS values.
T = Trace of Precipitation, MM = Missing Value Source: NWS Daily Summary

Daily Weather History Graph

Daily Weather History Graph

Search for Another Location

Airport or City:

Trip Planner

Search our weather history database for the weather conditions in past years. The results will help you decide how hot, cold, wet, or windy it might be!

Date:

Astronomy

Apr. 20, 2013 Rise Set
Actual Time 6:40 AM EDT 7:57 PM EDT
Civil Twilight 6:13 AM EDT 8:23 PM EDT
Nautical Twilight 5:41 AM EDT 8:55 PM EDT
Astronomical Twilight 5:08 AM EDT 9:28 PM EDT
Moon 2:49 PM EDT (4/20) 3:17 AM EDT (4/20)
Length of Visible Light 14h 10m
Length of Day
13h 17m
Waxing Gibbous, 71% of the Moon is Illuminated
Apr 20
Waxing Gibbous
Apr 25
Full
May 2
Last Quarter
May 9
New
May 18
First Quarter

Hourly Weather History & Observations

Time (EDT) Temp. Windchill Dew Point Humidity Pressure Visibility Wind Dir Wind Speed Gust Speed Precip Events Conditions
12:15 AM 58.1 °F - 51.3 °F 78% 29.91 in 10.0 mi SW 11.5 mph 19.6 mph N/A   Mostly Cloudy
12:35 AM 57.4 °F - 51.4 °F 81% 29.91 in 10.0 mi SW 9.2 mph - N/A   Overcast
12:55 AM 56.8 °F - 51.8 °F 83% 29.92 in 10.0 mi SW 6.9 mph - N/A   Overcast
1:15 AM 56.3 °F - 51.8 °F 85% 29.92 in 10.0 mi SW 4.6 mph - N/A   Overcast
1:35 AM 56.5 °F - 49.1 °F 76% 29.93 in 10.0 mi WSW 3.5 mph - N/A   Overcast
1:55 AM 55.9 °F - 44.4 °F 65% 29.93 in 10.0 mi WNW 5.8 mph - N/A   Overcast
2:15 AM 54.5 °F - 42.6 °F 64% 29.93 in 10.0 mi NW 8.1 mph - N/A   Overcast
2:35 AM 54.0 °F - 42.1 °F 64% 29.96 in 10.0 mi WNW 4.6 mph - N/A   Scattered Clouds
2:55 AM 53.6 °F - 41.7 °F 64% 29.97 in 10.0 mi NNW 6.9 mph - N/A   Scattered Clouds
3:35 AM 52.2 °F - 37.6 °F 58% 29.99 in 10.0 mi NW 6.9 mph - N/A   Mostly Cloudy
3:55 AM 51.4 °F - 37.0 °F 58% 30.00 in 10.0 mi NW 5.8 mph - N/A   Clear
4:15 AM 50.9 °F - 36.1 °F 57% 30.00 in 10.0 mi NNW 5.8 mph - N/A   Clear
4:35 AM 50.4 °F - 36.0 °F 58% 30.01 in 10.0 mi Calm Calm - N/A   Clear
4:55 AM 49.6 °F - 36.1 °F 60% 30.01 in 10.0 mi NNW 5.8 mph - N/A   Clear
5:15 AM 49.1 °F - 36.5 °F 62% 30.03 in 10.0 mi North 5.8 mph - N/A   Clear
5:35 AM 48.6 °F - 35.6 °F 61% 30.03 in 10.0 mi North 6.9 mph - N/A   Clear
5:55 AM 48.2 °F - 34.3 °F 59% 30.04 in 10.0 mi NNW 8.1 mph - N/A   Clear
6:15 AM 47.7 °F - 33.1 °F 57% 30.05 in 10.0 mi North 9.2 mph - N/A   Clear
6:35 AM 47.3 °F - 31.8 °F 55% 30.07 in 10.0 mi NNW 6.9 mph - N/A   Clear
6:55 AM 46.4 °F 42.4 °F 30.9 °F 55% 30.08 in 10.0 mi North 8.1 mph - N/A   Clear
7:15 AM 45.9 °F 43.6 °F 30.7 °F 56% 30.11 in 10.0 mi NNW 4.6 mph - N/A   Clear
7:35 AM 45.5 °F 42.5 °F 30.4 °F 56% 30.12 in 10.0 mi NNW 5.8 mph - N/A   Clear
7:55 AM 45.0 °F 41.8 °F 30.9 °F 58% 30.13 in 10.0 mi NNW 5.8 mph - N/A   Clear
8:15 AM 45.5 °F 42.5 °F 30.7 °F 56% 30.14 in 10.0 mi NW 5.8 mph - N/A   Clear
8:35 AM 46.4 °F 41.9 °F 30.9 °F 55% 30.14 in 10.0 mi NW 9.2 mph - N/A   Clear
8:55 AM 47.3 °F - 29.8 °F 51% 30.15 in 10.0 mi NNW 8.1 mph 16.1 mph N/A   Clear
9:15 AM 47.8 °F - 29.1 °F 48% 30.16 in 10.0 mi NNW 10.4 mph - N/A   Clear
9:35 AM 48.6 °F - 28.4 °F 46% 30.16 in 10.0 mi NNW 10.4 mph 17.3 mph N/A   Clear
9:55 AM 49.1 °F - 28.0 °F 44% 30.17 in 10.0 mi NNW 8.1 mph - N/A   Clear
10:15 AM 49.6 °F - 27.9 °F 43% 30.17 in 10.0 mi NNW 10.4 mph - N/A   Clear
10:35 AM 50.2 °F - 27.3 °F 41% 30.18 in 10.0 mi NNW 11.5 mph 16.1 mph N/A   Clear
10:55 AM 51.4 °F - 28.2 °F 41% 30.19 in 10.0 mi NNW 11.5 mph 17.3 mph N/A   Clear
11:15 AM 52.0 °F - 26.4 °F 37% 30.19 in 10.0 mi North 9.2 mph 16.1 mph N/A   Clear
11:35 AM 52.3 °F - 26.6 °F 37% 30.19 in 10.0 mi NNW 10.4 mph - N/A   Clear
11:55 AM 52.9 °F - 25.9 °F 35% 30.19 in 10.0 mi North 11.5 mph 17.3 mph N/A   Clear
12:15 PM 54.0 °F - 27.1 °F 36% 30.19 in 10.0 mi NNW 5.8 mph - N/A   Clear
12:35 PM 54.5 °F - 26.8 °F 34% 30.18 in 10.0 mi North 11.5 mph - N/A   Clear
12:55 PM 54.7 °F - 27.0 °F 34% 30.18 in 10.0 mi North 4.6 mph - N/A   Clear
1:15 PM 55.6 °F - 27.3 °F 34% 30.17 in 10.0 mi WNW 8.1 mph - N/A   Clear
1:35 PM 55.6 °F - 26.4 °F 33% 30.17 in 10.0 mi WNW 6.9 mph - N/A   Clear
1:55 PM 56.3 °F - 27.1 °F 33% 30.17 in 10.0 mi Calm Calm - N/A   Clear
2:15 PM 57.6 °F - 26.8 °F 31% 30.17 in 10.0 mi NW 4.6 mph - N/A   Clear
2:35 PM 57.6 °F - 27.9 °F 32% 30.16 in 10.0 mi Calm Calm - N/A   Clear
2:55 PM 59.2 °F - 28.2 °F 31% 30.16 in 10.0 mi NNW 8.1 mph - N/A   Clear
3:15 PM 59.7 °F - 29.3 °F 32% 30.16 in 10.0 mi WNW 4.6 mph - N/A   Clear
3:35 PM 60.1 °F - 30.0 °F 32% 30.16 in 10.0 mi West 9.2 mph - N/A   Clear
3:55 PM 60.3 °F - 29.1 °F 31% 30.15 in 10.0 mi NNW 8.1 mph - N/A   Clear
4:15 PM 60.4 °F - 27.1 °F 28% 30.15 in 10.0 mi Calm Calm - N/A   Clear
4:35 PM 61.0 °F - 28.8 °F 30% 30.15 in 10.0 mi NW 3.5 mph - N/A   Clear
4:55 PM 60.4 °F - 28.4 °F 30% 30.14 in 10.0 mi NW 3.5 mph - N/A   Clear
5:15 PM 61.2 °F - 28.2 °F 29% 30.15 in 10.0 mi NW 8.1 mph - N/A   Clear
5:35 PM 61.5 °F - 28.4 °F 29% 30.15 in 10.0 mi NW 6.9 mph - N/A   Clear
5:55 PM 61.3 °F - 27.7 °F 28% 30.16 in 10.0 mi Calm Calm - N/A   Clear
6:15 PM 61.2 °F - 28.6 °F 29% 30.17 in 10.0 mi WNW 4.6 mph - N/A   Clear
6:35 PM 61.3 °F - 29.3 °F 30% 30.18 in 10.0 mi Calm Calm - N/A   Clear
6:55 PM 61.0 °F - 28.4 °F 29% 30.18 in 10.0 mi North 5.8 mph - N/A   Clear
7:15 PM 60.4 °F - 28.8 °F 30% 30.18 in 10.0 mi WNW 3.5 mph - N/A   Clear
7:35 PM 59.2 °F - 32.0 °F 36% 30.19 in 10.0 mi Calm Calm - N/A   Clear
7:55 PM 55.9 °F - 37.0 °F 49% 30.20 in 10.0 mi Calm Calm - N/A   Clear
8:15 PM 52.7 °F - 38.1 °F 58% 30.22 in 10.0 mi Calm Calm - N/A   Clear
8:35 PM 50.9 °F - 38.3 °F 62% 30.23 in 10.0 mi Calm Calm - N/A   Clear
8:55 PM 49.5 °F - 39.6 °F 69% 30.24 in 10.0 mi Calm Calm - N/A   Clear
9:15 PM 48.2 °F - 39.6 °F 72% 30.26 in 10.0 mi Calm Calm - N/A   Clear
9:35 PM 47.3 °F - 39.6 °F 74% 30.26 in 10.0 mi Calm Calm - N/A   Clear
9:55 PM 46.4 °F - 38.8 °F 75% 30.27 in 10.0 mi Calm Calm - N/A   Clear
10:15 PM 45.7 °F - 38.8 °F 77% 30.28 in 10.0 mi Calm Calm - N/A   Clear
10:55 PM 44.4 °F - 38.7 °F 80% 30.29 in 10.0 mi Calm Calm - N/A   Clear
11:15 PM 44.2 °F - 38.5 °F 80% 30.29 in 10.0 mi Calm Calm - N/A   Clear
11:35 PM 43.3 °F - 38.3 °F 82% 30.29 in 10.0 mi Calm Calm - N/A   Clear
11:55 PM 43.0 °F - 38.3 °F 84% 30.29 in 10.0 mi Calm Calm - N/A   Clear